2018-104K (43858 NORAD) Tracking and Keplerian Element Data

This shows tracking and keplerian element data for the satellite.

Feedback or suggestion? Click here.




ElementValue
Catalog43858
Name2018-104K
Epoch Orbit434
Epoch Day13.9264799
Epoch Year2019
RAAN159.401
Inclination85.0337
Eccentricity0.0016005
Argument of Perigee182.5958
Mean Anonmoly177.5353
Mean Motion15.20689974
Decay Rate4.1E-07
L11 43858U 18104K 19013.92647990 .00000041 00000-0 00000+0 0 9996
L22 43858 85.0337 159.4010 0016005 182.5958 177.5353 15.20689974 4349

Live tracking and technical data element details for 2018-104K (NORAD 43858). 2018-104K can be tracked NOW for your location showing map with azimuth and elevation plus other details from your city location.

Track the satellite on the map from your city or location and see movement details for azimuth, elevation, latitude, longitude, range, height, and movement on the map or in text.







IsCatalogInMostPopularTable: catalog: 43858, numindb: 72
Update: records affected: 1



GetName: 43858 2018-104K

Hit Count: updated at: Thu, 23 May 2019 15:25:29 GMT